AIC117 VOBL-KSFO

Flight info

Callsign AIC117
Flight time N/A
Altitude 41000
Route ANIRO8A ANIRO W47 VVZ W90 ISMON A465 KAKID W41 CEA B465 CTG A599 LINSO/K0883S1250 A599 SGM A581 WHA R343 PK W116 JTN G327 LAMEN/N0483F410 A593 SADLI Y590 BEDAR Y591 FUE Y23 KASTE Y81 TASOT Y57 POROT Y809 IDLAN Y812 ADNAP OTR5 KALNA DCT 42N160E 45N170E 49N180E 49N170W 49N160W 49N150W 49N140W 44N130W DCT AMAKR BDEGA4
Aircraft A35K/H-SDE2E3GHIJ3J4J5LM1ORWXY/LB1D1

Departure

Time 2026-05-07 23:14
Airport Kempegowda International Airport Bengaluru (VOBL)

Arrival

Time N/A
Airport San Francisco International Airport (KSFO)
Time Latitude Longitude Altitude Speed Heading
2026-05-07 23:04 13.20177 77.72026 3017 ft 6 kts 92°
2026-05-07 23:05 13.20175 77.72077 3017 ft 8 kts 92°
2026-05-07 23:05 13.20179 77.72140 3017 ft 10 kts 78°
2026-05-07 23:05 13.20226 77.72182 3017 ft 10 kts 10°
2026-05-07 23:05 13.20298 77.72184 3019 ft 11 kts 359°
2026-05-07 23:06 13.20378 77.72183 3017 ft 12 kts 359°
2026-05-07 23:06 13.20435 77.72135 3017 ft 9 kts 313°
2026-05-07 23:06 13.20492 77.72111 3017 ft 9 kts 335°
2026-05-07 23:06 13.20519 77.72061 3017 ft 9 kts 275°
2026-05-07 23:07 13.20519 77.71998 3017 ft 10 kts 270°
2026-05-07 23:07 13.20520 77.71932 3017 ft 9 kts 270°
2026-05-07 23:07 13.20520 77.71875 3017 ft 7 kts 270°
2026-05-07 23:07 13.20520 77.71830 3017 ft 6 kts 270°
2026-05-07 23:08 13.20520 77.71791 3017 ft 7 kts 270°
2026-05-07 23:08 13.20521 77.71716 3017 ft 14 kts 270°
2026-05-07 23:08 13.20521 77.71594 3017 ft 20 kts 270°
2026-05-07 23:08 13.20522 77.71430 3017 ft 25 kts 271°
2026-05-07 23:09 13.20525 77.71233 3017 ft 30 kts 270°
2026-05-07 23:09 13.20528 77.71006 3016 ft 34 kts 270°
2026-05-07 23:09 13.20529 77.70754 3017 ft 37 kts 270°
2026-05-07 23:09 13.20530 77.70489 3017 ft 40 kts 270°
2026-05-07 23:10 13.20535 77.70199 3017 ft 42 kts 270°
2026-05-07 23:10 13.20538 77.69893 3017 ft 44 kts 270°
2026-05-07 23:10 13.20540 77.69571 3017 ft 46 kts 270°
2026-05-07 23:10 13.20543 77.69237 3017 ft 48 kts 270°
2026-05-07 23:11 13.20547 77.68892 3016 ft 49 kts 271°
2026-05-07 23:11 13.20548 77.68669 3017 ft 2 kts 270°
2026-05-07 23:11 13.20549 77.68664 3017 ft 0 kts 271°
2026-05-07 23:11 13.20549 77.68662 3017 ft 2 kts 271°
2026-05-07 23:12 13.20570 77.68623 3017 ft 10 kts 318°
2026-05-07 23:12 13.20663 77.68618 3017 ft 18 kts
2026-05-07 23:12 13.20707 77.68627 3017 ft 2 kts 35°
2026-05-07 23:12 13.20718 77.68663 3017 ft 11 kts 78°
2026-05-07 23:13 13.20719 77.68773 3017 ft 20 kts 91°
2026-05-07 23:13 13.20713 77.69081 3017 ft 73 kts 90°
2026-05-07 23:13 13.20711 77.69810 3017 ft 130 kts 90°
2026-05-07 23:13 13.20701 77.70916 3017 ft 179 kts 90°
2026-05-07 23:14 13.20674 77.72333 3162 ft 212 kts 91°
2026-05-07 23:14 13.20638 77.73899 3613 ft 228 kts 91°
2026-05-07 23:14 13.20669 77.75579 4132 ft 242 kts 81°
2026-05-07 23:14 13.21155 77.77201 4667 ft 237 kts 61°
2026-05-07 23:15 13.21938 77.78602 5485 ft 214 kts 58°
2026-05-07 23:15 13.22741 77.79903 5778 ft 217 kts 53°
2026-05-07 23:15 13.23819 77.81012 5936 ft 224 kts 32°
2026-05-07 23:15 13.25075 77.82026 6123 ft 236 kts 39°
2026-05-07 23:16 13.26239 77.83239 6304 ft 248 kts 47°
2026-05-07 23:16 13.27341 77.84646 6544 ft 259 kts 51°
2026-05-07 23:16 13.28436 77.86193 6703 ft 274 kts 54°
2026-05-07 23:16 13.29533 77.87846 7015 ft 284 kts 55°
2026-05-07 23:17 13.30629 77.89552 7457 ft 288 kts 55°
2026-05-07 23:17 13.31739 77.91277 7947 ft 291 kts 53°
2026-05-07 23:17 13.33124 77.92777 8443 ft 291 kts 37°
2026-05-07 23:17 13.34724 77.94038 8927 ft 293 kts 36°
2026-05-07 23:18 13.36347 77.95266 9343 ft 283 kts 37°
2026-05-07 23:18 13.37891 77.96445 10118 ft 275 kts 37°
2026-05-07 23:18 13.39449 77.97641 10322 ft 286 kts 37°
2026-05-07 23:18 13.41075 77.98894 10491 ft 298 kts 37°
2026-05-07 23:19 13.42767 78.00198 10680 ft 309 kts 37°
2026-05-07 23:19 13.44515 78.01545 10880 ft 319 kts 37°
2026-05-07 23:19 13.46294 78.02919 11057 ft 329 kts 37°
2026-05-07 23:19 13.48150 78.04352 11236 ft 339 kts 37°
2026-05-07 23:20 13.50067 78.05833 11417 ft 349 kts 37°
2026-05-07 23:20 13.52029 78.07349 11585 ft 357 kts 37°
2026-05-07 23:20 13.54036 78.08902 11778 ft 365 kts 37°
2026-05-07 23:20 13.56019 78.10580 11915 ft 374 kts 43°
2026-05-07 23:21 13.57883 78.12478 12069 ft 381 kts 45°
2026-05-07 23:21 13.59750 78.14453 12213 ft 388 kts 45°
2026-05-07 23:21 13.61639 78.16454 12478 ft 392 kts 45°
2026-05-07 23:21 13.63548 78.18473 12792 ft 394 kts 45°
2026-05-07 23:22 13.65466 78.20499 13059 ft 397 kts 45°
2026-05-07 23:22 13.67400 78.22542 13352 ft 399 kts 45°
2026-05-07 23:22 13.69341 78.24590 13649 ft 401 kts 45°
2026-05-07 23:22 13.71293 78.26652 13917 ft 404 kts 45°
2026-05-07 23:23 13.73261 78.28729 14159 ft 406 kts 45°
2026-05-07 23:23 13.75241 78.30819 14394 ft 409 kts 45°
2026-05-07 23:23 13.77232 78.32923 14642 ft 411 kts 45°
2026-05-07 23:23 13.79230 78.35033 14874 ft 413 kts 45°
2026-05-07 23:24 13.81243 78.37160 15119 ft 415 kts 45°
2026-05-07 23:24 13.83259 78.39291 15313 ft 418 kts 45°
2026-05-07 23:24 13.85295 78.41443 15537 ft 420 kts 45°
2026-05-07 23:24 13.87339 78.43605 15774 ft 422 kts 45°
2026-05-07 23:25 13.89399 78.45784 15981 ft 425 kts 45°
2026-05-07 23:25 13.91466 78.47972 16194 ft 427 kts 45°
2026-05-07 23:25 13.93542 78.50170 16402 ft 430 kts 45°
2026-05-07 23:25 13.95630 78.52381 16649 ft 430 kts 45°
2026-05-07 23:26 13.97692 78.54564 16911 ft 431 kts 45°
2026-05-07 23:26 13.99787 78.56784 17113 ft 434 kts 44°
2026-05-07 23:26 14.01895 78.59017 17301 ft 436 kts 45°
2026-05-07 23:26 14.04072 78.61201 17510 ft 438 kts 41°
2026-05-07 23:27 14.08757 78.65243 17916 ft 441 kts 37°
2026-05-07 23:27 14.11175 78.67204 18093 ft 443 kts 37°
2026-05-07 23:27 14.13608 78.69165 18310 ft 443 kts 37°
2026-05-07 23:28 14.16027 78.71124 18567 ft 442 kts 37°
2026-05-07 23:28 14.18442 78.73094 18736 ft 444 kts 37°
2026-05-07 23:28 14.20864 78.75082 18890 ft 446 kts 37°
2026-05-07 23:28 14.23293 78.77085 19060 ft 447 kts 38°
2026-05-07 23:29 14.25721 78.79094 19222 ft 449 kts 38°
2026-05-07 23:29 14.28166 78.81118 19393 ft 450 kts 38°
2026-05-07 23:29 14.30608 78.83145 19562 ft 452 kts 38°
2026-05-07 23:29 14.33034 78.85220 19719 ft 454 kts 39°
2026-05-07 23:30 14.35439 78.87332 19863 ft 455 kts 39°
2026-05-07 23:30 14.37845 78.89465 20039 ft 457 kts 39°
2026-05-07 23:30 14.40257 78.91604 20191 ft 458 kts 40°
2026-05-07 23:30 14.42678 78.93745 20347 ft 460 kts 39°
2026-05-07 23:31 14.45116 78.95894 20514 ft 461 kts 39°
2026-05-07 23:31 14.47560 78.98041 20687 ft 462 kts 39°
2026-05-07 23:31 14.50012 79.00193 20814 ft 464 kts 39°
2026-05-07 23:31 14.52440 79.02322 20978 ft 465 kts 39°
2026-05-07 23:32 14.54909 79.04488 21152 ft 466 kts 39°
2026-05-07 23:32 14.57385 79.06661 21302 ft 468 kts 39°
2026-05-07 23:32 14.59867 79.08840 21464 ft 469 kts 39°
2026-05-07 23:32 14.62355 79.11025 21619 ft 471 kts 39°
2026-05-07 23:33 14.64854 79.13222 21772 ft 472 kts 40°
2026-05-07 23:33 14.67360 79.15425 21922 ft 474 kts 40°
2026-05-07 23:33 14.69872 79.17634 22060 ft 476 kts 39°
2026-05-07 23:33 14.72400 79.19858 22187 ft 478 kts 39°
2026-05-07 23:34 14.74936 79.22088 22345 ft 479 kts 39°
2026-05-07 23:34 14.77478 79.24326 22495 ft 481 kts 39°
2026-05-07 23:34 14.80036 79.26578 22653 ft 482 kts 39°
2026-05-07 23:34 14.82593 79.28830 22815 ft 484 kts 39°
2026-05-07 23:35 14.85158 79.31089 22963 ft 486 kts 40°
2026-05-07 23:35 14.87734 79.33360 23119 ft 487 kts 40°
2026-05-07 23:35 14.90315 79.35635 23270 ft 489 kts 40°
2026-05-07 23:35 14.92878 79.37895 23418 ft 490 kts 40°
2026-05-07 23:36 14.95475 79.40186 23547 ft 492 kts 40°
2026-05-07 23:36 14.98086 79.42490 23692 ft 493 kts 40°
2026-05-07 23:36 15.00691 79.44809 23814 ft 495 kts 40°
2026-05-07 23:36 15.03292 79.47142 23947 ft 496 kts 40°
2026-05-07 23:37 15.05898 79.49487 24100 ft 497 kts 40°
2026-05-07 23:37 15.08506 79.51835 24236 ft 498 kts 40°
2026-05-07 23:37 15.10240 79.53397 24357 ft 498 kts 40°
2026-05-07 23:37 15.13746 79.56551 24560 ft 500 kts 40°
2026-05-07 23:38 15.15484 79.58114 24662 ft 501 kts 40°
2026-05-07 23:38 15.18115 79.60480 24816 ft 502 kts 40°
2026-05-07 23:38 15.21647 79.63655 25047 ft 503 kts 40°
2026-05-07 23:38 15.23401 79.65233 25150 ft 504 kts 40°
2026-05-07 23:39 15.26915 79.68395 25376 ft 506 kts 40°
2026-05-07 23:39 15.28708 79.70008 25497 ft 507 kts 40°
2026-05-07 23:39 15.31370 79.72405 25672 ft 508 kts 40°
2026-05-07 23:39 15.34910 79.75594 25897 ft 510 kts 40°
2026-05-07 23:40 15.37590 79.78008 26075 ft 511 kts 40°
2026-05-07 23:40 15.40273 79.80427 26258 ft 513 kts 40°
2026-05-07 23:40 15.42098 79.82072 26332 ft 515 kts 40°
2026-05-07 23:40 15.44779 79.84490 26414 ft 519 kts 40°
2026-05-07 23:41 15.47501 79.86946 26618 ft 519 kts 40°
2026-05-07 23:41 15.50233 79.89412 26811 ft 520 kts 40°
2026-05-07 23:41 15.52964 79.91878 27003 ft 522 kts 41°
2026-05-07 23:41 15.55706 79.94355 27192 ft 523 kts 41°
2026-05-07 23:42 15.58452 79.96836 27374 ft 525 kts 41°
2026-05-07 23:42 15.61212 79.99331 27581 ft 526 kts 41°
2026-05-07 23:42 15.63975 80.01830 27750 ft 527 kts 41°
2026-05-07 23:42 15.66745 80.04335 27945 ft 529 kts 41°
2026-05-07 23:43 15.69525 80.06851 28110 ft 530 kts 41°
2026-05-07 23:43 15.72305 80.09368 28299 ft 532 kts 41°
2026-05-07 23:43 15.75099 80.11898 28462 ft 533 kts 41°
2026-05-07 23:43 15.77898 80.14434 28654 ft 534 kts 41°
2026-05-07 23:44 15.80704 80.16977 28762 ft 537 kts 41°
2026-05-07 23:44 15.83520 80.19530 28978 ft 536 kts 41°
2026-05-07 23:44 15.86288 80.22041 29229 ft 535 kts 41°
2026-05-07 23:44 15.89092 80.24585 29482 ft 535 kts 41°
2026-05-07 23:45 15.91890 80.27125 29730 ft 534 kts 41°
2026-05-07 23:45 15.94688 80.29666 29927 ft 534 kts 41°
2026-05-07 23:45 15.97483 80.32204 30111 ft 533 kts 41°
2026-05-07 23:45 16.00278 80.34744 30313 ft 532 kts 41°
2026-05-07 23:46 16.03065 80.37278 30507 ft 532 kts 41°
2026-05-07 23:46 16.05846 80.39807 30709 ft 531 kts 41°
2026-05-07 23:46 16.08620 80.42331 30877 ft 530 kts 41°
2026-05-07 23:46 16.11397 80.44858 31058 ft 529 kts 41°
2026-05-07 23:47 16.14164 80.47378 31233 ft 529 kts 40°
2026-05-07 23:47 16.16934 80.49901 31317 ft 530 kts 40°
2026-05-07 23:47 16.19707 80.52428 31462 ft 530 kts 40°
2026-05-07 23:47 16.22473 80.54949 31647 ft 529 kts 40°
2026-05-07 23:48 16.25240 80.57473 31828 ft 528 kts 40°
2026-05-07 23:48 16.28002 80.59992 31995 ft 527 kts 40°
2026-05-07 23:48 16.30753 80.62503 32144 ft 526 kts 40°
2026-05-07 23:48 16.33503 80.65014 32299 ft 525 kts 40°
2026-05-07 23:49 16.36251 80.67524 32455 ft 525 kts 40°
2026-05-07 23:49 16.38993 80.70029 32584 ft 524 kts 40°
2026-05-07 23:49 16.41731 80.72532 32725 ft 524 kts 40°
2026-05-07 23:49 16.44428 80.74998 32851 ft 523 kts 40°
2026-05-07 23:50 16.47163 80.77500 32977 ft 522 kts 40°
2026-05-07 23:50 16.49896 80.80003 33105 ft 522 kts 40°
2026-05-07 23:50 16.54644 80.85738 33162 ft 526 kts 59°
2026-05-07 23:51 16.56445 80.89059 33267 ft 526 kts 62°
2026-05-07 23:51 16.58133 80.92435 33394 ft 525 kts 63°
2026-05-07 23:51 16.59764 80.95837 33506 ft 525 kts 63°
2026-05-07 23:51 16.61375 80.99256 33599 ft 524 kts 64°
2026-05-07 23:52 16.62975 81.02659 33701 ft 524 kts 63°
2026-05-07 23:52 16.64587 81.06074 33798 ft 524 kts 63°
2026-05-07 23:52 16.67815 81.12872 33953 ft 523 kts 63°
2026-05-07 23:53 16.71057 81.19666 34118 ft 522 kts 63°
2026-05-07 23:53 16.74296 81.26450 34256 ft 522 kts 63°
2026-05-07 23:54 16.77529 81.33230 34384 ft 521 kts 63°
2026-05-07 23:54 16.80755 81.40006 34502 ft 521 kts 63°
2026-05-07 23:55 16.83977 81.46781 34613 ft 521 kts 63°
2026-05-07 23:55 16.87193 81.53550 34727 ft 520 kts 63°
2026-05-07 23:56 16.90417 81.60343 34649 ft 524 kts 63°
2026-05-07 23:56 16.93631 81.67121 34778 ft 523 kts 63°
2026-05-07 23:57 16.96879 81.73978 34875 ft 523 kts 63°
2026-05-07 23:57 17.00080 81.80744 34969 ft 523 kts 64°
2026-05-07 23:58 17.03299 81.87555 35065 ft 522 kts 64°
2026-05-07 23:58 17.06514 81.94365 35145 ft 522 kts 64°
2026-05-07 23:59 17.09726 82.01175 35217 ft 522 kts 64°
2026-05-07 23:59 17.12937 82.07988 35284 ft 522 kts 64°
2026-05-08 00:00 17.16140 82.14798 35338 ft 522 kts 64°
2026-05-08 00:00 17.19309 82.21629 35410 ft 522 kts 64°
2026-05-08 00:01 17.22441 82.28415 35474 ft 521 kts 64°
2026-05-08 00:01 17.25590 82.35240 35523 ft 521 kts 64°
2026-05-08 00:02 17.28753 82.42093 35469 ft 524 kts 64°
2026-05-08 00:02 17.31920 82.48959 35522 ft 523 kts 64°
2026-05-08 00:03 17.35080 82.55817 35582 ft 523 kts 64°
2026-05-08 00:03 17.38243 82.62690 35632 ft 523 kts 64°
2026-05-08 00:04 17.41397 82.69550 35689 ft 523 kts 64°
2026-05-08 00:04 17.44545 82.76407 35728 ft 522 kts 64°
2026-05-08 00:05 17.47696 82.83276 35729 ft 524 kts 64°
2026-05-08 00:05 17.50848 82.90154 35743 ft 524 kts 64°
2026-05-08 00:06 17.53996 82.97032 35773 ft 523 kts 64°
2026-05-08 00:06 17.57143 83.03915 35812 ft 523 kts 64°
2026-05-08 00:07 17.60283 83.10792 35865 ft 523 kts 64°
2026-05-08 00:07 17.63426 83.17681 35879 ft 524 kts 64°
2026-05-08 00:08 17.66658 83.24496 35772 ft 527 kts 58°
2026-05-08 00:08 17.70881 83.30813 35827 ft 525 kts 52°
2026-05-08 00:09 17.75273 83.36878 35852 ft 525 kts 52°
2026-05-08 00:09 17.79727 83.42954 35884 ft 525 kts 52°
2026-05-08 00:10 17.84170 83.49044 35900 ft 525 kts 52°
2026-05-08 00:10 17.88595 83.55137 35905 ft 525 kts 52°
2026-05-08 00:11 17.93027 83.61252 35902 ft 526 kts 52°
2026-05-08 00:11 17.97450 83.67360 35929 ft 526 kts 52°
2026-05-08 00:12 18.01886 83.73493 35870 ft 528 kts 52°
2026-05-08 00:12 18.06334 83.79646 35907 ft 528 kts 52°
2026-05-08 00:13 18.10777 83.85797 35934 ft 528 kts 52°
2026-05-08 00:13 18.15213 83.91945 35975 ft 528 kts 52°
2026-05-08 00:14 18.19649 83.98100 35965 ft 529 kts 52°
2026-05-08 00:14 18.24092 84.04268 35992 ft 528 kts 52°
2026-05-08 00:15 18.27779 84.09393 36006 ft 528 kts 52°
2026-05-08 00:15 18.32965 84.16607 36031 ft 528 kts 52°
2026-05-08 00:16 18.37397 84.22780 35999 ft 530 kts 52°
2026-05-08 00:16 18.41827 84.28955 35938 ft 532 kts 52°
2026-05-08 00:17 18.46278 84.35165 36012 ft 531 kts 52°
2026-05-08 00:17 18.50725 84.41375 36033 ft 531 kts 52°
2026-05-08 00:18 18.55167 84.47587 36052 ft 531 kts 52°
2026-05-08 00:18 18.59608 84.53801 36071 ft 531 kts 52°
2026-05-08 00:19 18.64051 84.60024 36103 ft 531 kts 52°
2026-05-08 00:19 18.68490 84.66249 36109 ft 531 kts 52°
2026-05-08 00:20 18.72934 84.72485 36093 ft 532 kts 52°
2026-05-08 00:20 18.77372 84.78721 36109 ft 532 kts 52°
2026-05-08 00:21 18.81812 84.84965 36118 ft 532 kts 52°
2026-05-08 00:21 18.86261 84.91200 36130 ft 532 kts 52°
2026-05-08 00:22 18.90763 84.97396 36149 ft 532 kts 52°
2026-05-08 00:22 18.95238 85.03546 36163 ft 531 kts 52°
2026-05-08 00:23 18.99741 85.09757 36148 ft 532 kts 52°
2026-05-08 00:23 19.04232 85.15971 36162 ft 532 kts 52°
2026-05-08 00:24 19.08735 85.22210 36113 ft 534 kts 52°
2026-05-08 00:24 19.13457 85.28265 36105 ft 534 kts 46°
2026-05-08 00:25 19.17658 85.33055 36126 ft 533 kts 45°
2026-05-08 00:25 19.22756 85.38756 36142 ft 533 kts 45°
2026-05-08 00:26 19.28683 85.45376 36160 ft 533 kts 45°
2026-05-08 00:26 19.32952 85.50160 36162 ft 533 kts 45°
2026-05-08 00:27 19.38037 85.55870 36175 ft 533 kts 45°
2026-05-08 00:27 19.43098 85.61559 36125 ft 536 kts 45°
2026-05-08 00:28 19.48218 85.67321 36068 ft 537 kts 45°
2026-05-08 00:28 19.53332 85.73082 36130 ft 536 kts 45°
2026-05-08 00:29 19.58444 85.78846 36132 ft 536 kts 45°
2026-05-08 00:29 19.63554 85.84614 36150 ft 536 kts 45°
2026-05-08 00:30 19.68667 85.90390 36165 ft 536 kts 45°
2026-05-08 00:30 19.73774 85.96167 36182 ft 536 kts 45°
2026-05-08 00:31 19.78889 86.01956 36090 ft 539 kts 45°
2026-05-08 00:31 19.84024 86.07776 36101 ft 539 kts 45°
2026-05-08 00:32 19.89118 86.13555 36147 ft 539 kts 45°
2026-05-08 00:32 19.94215 86.19398 36169 ft 539 kts 46°
2026-05-08 00:33 19.99232 86.25321 36190 ft 539 kts 47°
2026-05-08 00:33 20.04240 86.31256 36202 ft 539 kts 46°
2026-05-08 00:34 20.09302 86.37142 36223 ft 538 kts 45°
2026-05-08 00:34 20.14457 86.42954 36136 ft 541 kts 45°
2026-05-08 00:35 20.19625 86.48782 36157 ft 541 kts 45°
2026-05-08 00:35 20.24776 86.54627 36186 ft 541 kts 45°
2026-05-08 00:36 20.29916 86.60479 36224 ft 540 kts 45°
2026-05-08 00:36 20.35051 86.66334 36237 ft 540 kts 45°
2026-05-08 00:37 20.40147 86.72150 36242 ft 541 kts 45°
2026-05-08 00:38 20.47852 86.80953 36200 ft 543 kts 45°
2026-05-08 00:38 20.53001 86.86844 36223 ft 542 kts 45°
2026-05-08 00:39 20.58150 86.92740 36248 ft 542 kts 45°
2026-05-08 00:39 20.63260 86.98598 36248 ft 542 kts 45°
2026-05-08 00:40 20.68450 87.04436 36256 ft 542 kts 44°
2026-05-08 00:40 20.73780 87.10201 36266 ft 542 kts 43°
2026-05-08 00:41 20.79048 87.15901 36313 ft 542 kts 43°
2026-05-08 00:41 20.84334 87.21661 36269 ft 543 kts 43°
2026-05-08 00:42 20.89610 87.27438 36304 ft 543 kts 43°
2026-05-08 00:42 20.94880 87.33216 36308 ft 543 kts 44°
2026-05-08 00:43 21.00157 87.39005 36290 ft 543 kts 44°
2026-05-08 00:43 21.05432 87.44799 36309 ft 543 kts 44°
2026-05-08 00:44 21.10707 87.50599 36317 ft 543 kts 44°
2026-05-08 00:44 21.15976 87.56399 36320 ft 544 kts 43°
2026-05-08 00:45 21.21218 87.62174 36326 ft 544 kts 43°
2026-05-08 00:45 21.26497 87.67997 36330 ft 544 kts 43°
2026-05-08 00:46 21.31767 87.73817 36332 ft 544 kts 44°
2026-05-08 00:46 21.37044 87.79650 36336 ft 544 kts 44°
2026-05-08 00:47 21.42312 87.85481 36354 ft 544 kts 44°
2026-05-08 00:47 21.47584 87.91322 36359 ft 545 kts 43°
2026-05-08 00:48 21.52877 87.97191 36286 ft 547 kts 43°
2026-05-08 00:48 21.58166 88.03065 36313 ft 547 kts 43°
2026-05-08 00:49 21.63896 88.08285 36281 ft 539 kts 27°
2026-05-08 00:49 21.67220 88.10082 36238 ft 533 kts 16°
2026-05-08 00:49 21.70694 88.11462 36223 ft 531 kts 14°
2026-05-08 00:50 21.77706 88.13908 36254 ft 529 kts 12°
2026-05-08 00:50 21.84758 88.16260 36224 ft 531 kts 12°
2026-05-08 00:51 21.91811 88.18642 36244 ft 531 kts 12°
2026-05-08 00:51 21.98857 88.21055 36295 ft 531 kts 12°
2026-05-08 00:52 22.05860 88.23465 36316 ft 531 kts 12°
2026-05-08 00:52 22.12899 88.25890 36337 ft 531 kts 12°
2026-05-08 00:53 22.19933 88.28314 36366 ft 531 kts 12°
2026-05-08 00:53 22.26971 88.30742 36372 ft 531 kts 12°
2026-05-08 00:54 22.34016 88.33175 36394 ft 531 kts 12°
2026-05-08 00:54 22.41049 88.35606 36407 ft 531 kts 12°
2026-05-08 00:55 22.48082 88.38040 36396 ft 532 kts 12°
2026-05-08 00:55 22.55156 88.40493 36360 ft 534 kts 12°
2026-05-08 00:56 22.61854 88.44108 36329 ft 547 kts 33°
2026-05-08 00:56 22.64737 88.46836 36286 ft 553 kts 45°
2026-05-08 00:56 22.67103 88.50121 36226 ft 557 kts 58°
2026-05-08 00:56 22.68850 88.53864 36182 ft 558 kts 70°
2026-05-08 00:57 22.69896 88.57897 36116 ft 556 kts 82°
2026-05-08 00:57 22.70209 88.62058 36078 ft 553 kts 95°
2026-05-08 00:57 22.69796 88.66167 36042 ft 547 kts 107°
2026-05-08 00:57 22.68701 88.70072 36009 ft 539 kts 118°
2026-05-08 00:58 22.66990 88.73639 35988 ft 530 kts 129°
2026-05-08 00:58 22.62938 88.80210 35959 ft 534 kts 122°
2026-05-08 00:59 22.60467 88.87879 35970 ft 545 kts 107°
2026-05-08 00:59 22.58995 88.95933 36036 ft 547 kts 103°
2026-05-08 01:00 22.58077 89.04130 36068 ft 549 kts 99°
2026-05-08 01:00 22.57333 89.12361 36094 ft 549 kts 99°
2026-05-08 01:01 22.56504 89.20571 36149 ft 549 kts 100°
2026-05-08 01:01 22.55608 89.28762 36239 ft 547 kts 100°
2026-05-08 01:02 22.54690 89.36940 36266 ft 547 kts 100°
2026-05-08 01:02 22.53769 89.45109 36292 ft 547 kts 100°
2026-05-08 01:03 22.52847 89.53289 36333 ft 547 kts 101°
2026-05-08 01:03 22.51924 89.61459 36370 ft 547 kts 101°
2026-05-08 01:04 22.51002 89.69571 36386 ft 547 kts 101°
2026-05-08 01:04 22.50071 89.77735 36401 ft 547 kts 101°
2026-05-08 01:05 22.49135 89.85900 36431 ft 547 kts 101°
2026-05-08 01:05 22.48195 89.94061 36440 ft 547 kts 101°
2026-05-08 01:06 22.47252 90.02213 36504 ft 546 kts 101°
2026-05-08 01:06 22.46308 90.10344 36581 ft 544 kts 101°
2026-05-08 01:07 22.45360 90.18468 36591 ft 544 kts 101°
2026-05-08 01:07 22.44413 90.26550 36663 ft 542 kts 101°
2026-05-08 01:08 22.43460 90.34641 36659 ft 543 kts 101°
2026-05-08 01:08 22.42509 90.42680 36656 ft 543 kts 101°
2026-05-08 01:09 22.41549 90.50764 36669 ft 542 kts 101°
2026-05-08 01:09 22.40584 90.58857 36686 ft 542 kts 101°
2026-05-08 01:10 22.39615 90.66946 36704 ft 542 kts 101°
2026-05-08 01:10 22.38643 90.75024 36707 ft 542 kts 101°
2026-05-08 01:11 22.37665 90.83116 36666 ft 543 kts 101°
2026-05-08 01:11 22.36683 90.91210 36698 ft 543 kts 101°
2026-05-08 01:12 22.35866 90.97918 36694 ft 543 kts 101°
2026-05-08 01:12 22.35281 91.02703 36690 ft 543 kts 101°
2026-05-08 01:13 22.34619 91.08105 36667 ft 543 kts 100°
2026-05-08 01:13 22.34061 91.13422 36529 ft 545 kts 102°
2026-05-08 01:13 22.33735 91.15920 36270 ft 553 kts 97°
2026-05-08 01:14 22.33556 91.18337 36035 ft 554 kts 101°
2026-05-08 01:14 22.33191 91.24023 36253 ft 548 kts 96°
2026-05-08 01:14 22.33072 91.26580 36356 ft 547 kts 94°
2026-05-08 01:15 22.32972 91.28950 36300 ft 545 kts 101°
2026-05-08 01:15 22.32686 91.31694 36188 ft 546 kts 100°
2026-05-08 01:15 22.32240 91.34130 36048 ft 541 kts 107°
2026-05-08 01:15 22.31672 91.36344 35868 ft 546 kts 113°
2026-05-08 01:16 22.31071 91.38702 35895 ft 539 kts 114°
2026-05-08 01:16 22.29787 91.43712 35580 ft 546 kts 111°
2026-05-08 01:16 22.29204 91.46320 35260 ft 555 kts 102°
2026-05-08 01:17 22.28660 91.49072 35147 ft 549 kts 107°
2026-05-08 01:17 22.28446 91.51436 34002 ft 527 kts 98°
2026-05-08 01:17 22.27963 91.55269 25349 ft 550 kts 100°
2026-05-08 01:17 22.27661 91.59648 17199 ft 614 kts 94°
2026-05-08 01:18 22.27499 91.63603 13328 ft 438 kts 93°
2026-05-08 01:18 22.27263 91.65884 12412 ft 9 kts 135°
2026-05-08 01:18 22.26951 91.65960 7785 ft 43 kts 12°
2026-05-08 01:18 22.26752 91.65920 653 ft 39 kts 174°
2026-05-08 01:19 22.26302 91.65285 2112 ft 425 kts 242°
2026-05-08 01:19 22.26042 91.64675 1502 ft 71 kts 271°
2026-05-08 01:19 22.26565 91.63050 4129 ft 417 kts 279°
2026-05-08 01:19 22.26607 91.62385 5726 ft 8 kts 267°
2026-05-08 01:20 22.26813 91.61938 741 ft 414 kts 334°
2026-05-08 01:20 22.27305 91.61638 702 ft 31 kts
2026-05-08 01:20 22.29235 91.61517 4901 ft 1 kts 334°
2026-05-08 01:20 22.29397 91.61476 2026 ft 76 kts 52°
2026-05-08 01:21 22.30530 91.60722 3533 ft 416 kts 318°
2026-05-08 01:21 22.31709 91.58993 8325 ft 1 kts 291°
2026-05-08 01:21 22.31811 91.58846 5384 ft 77 kts
2026-05-08 01:21 22.32110 91.58718 2017 ft 417 kts 322°